Wetterdaten: Samstag, 04.01.2014
Datum Zeit Temperatur Luftfeuchte Luftdruck Regen Wind Richtung Richtung Taupunkt Windchill Windben
04.01.2014 00:00 2,2 C 66 % 1017,2 hPa 0,0 l/m 2,1 km/h (1 Bft) SO 135 -3,5 C 2,7 C 0,0 km/h (0 Bft)
04.01.2014 00:05 2,1 C 66 % 1017,2 hPa 0,0 l/m 1,3 km/h (1 Bft) SO 135 -3,6 C 2,7 C 0,0 km/h (0 Bft)
04.01.2014 00:10 1,7 C 67 % 1017,2 hPa 0,0 l/m 0,5 km/h (0 Bft) S 180 -3,8 C 2,4 C 0,0 km/h (0 Bft)
04.01.2014 00:15 1,5 C 67 % 1017,2 hPa 0,0 l/m 0,6 km/h (0 Bft) S 180 -3,9 C 2,1 C 0,0 km/h (0 Bft)
04.01.2014 00:20 1,6 C 69 % 1017,2 hPa 0,0 l/m 0,5 km/h (0 Bft) O-SO 112 -3,5 C 1,9 C 2,7 km/h (1 Bft)
04.01.2014 00:25 1,5 C 69 % 1017,2 hPa 0,0 l/m 0,5 km/h (0 Bft) O-NO 67 -3,6 C 1,9 C 0,0 km/h (0 Bft)
04.01.2014 00:30 1,8 C 69 % 1017,2 hPa 0,0 l/m 0,2 km/h (0 Bft) O-SO 112 -3,3 C 1,9 C 0,0 km/h (0 Bft)
04.01.2014 00:35 1,9 C 69 % 1017,2 hPa 0,0 l/m 0,5 km/h (0 Bft) N 360 -3,2 C 1,9 C 0,0 km/h (0 Bft)
04.01.2014 00:40 2,3 C 68 % 1017,2 hPa 0,0 l/m 0,8 km/h (0 Bft) NO 45 -3,0 C 2,0 C 4,0 km/h (1 Bft)
04.01.2014 00:45 2,6 C 67 % 1017,7 hPa 0,0 l/m 1,4 km/h (1 Bft) O-NO 67 -2,9 C 2,1 C 2,9 km/h (1 Bft)
04.01.2014 00:50 2,1 C 67 % 1017,7 hPa 0,0 l/m 1,3 km/h (1 Bft) O 90 -3,4 C 2,2 C 6,1 km/h (2 Bft)
04.01.2014 00:55 2,3 C 67 % 1017,7 hPa 0,0 l/m 1,6 km/h (1 Bft) O 90 -3,2 C 2,1 C 5,5 km/h (1 Bft)
04.01.2014 01:00 1,9 C 67 % 1017,7 hPa 0,0 l/m 2,1 km/h (1 Bft) S-SO 157 -3,6 C 2,3 C 0,0 km/h (0 Bft)
04.01.2014 01:05 1,7 C 68 % 1017,7 hPa 0,0 l/m 1,3 km/h (1 Bft) S-SO 157 -3,6 C 2,1 C 0,0 km/h (0 Bft)
04.01.2014 01:10 1,7 C 71 % 1017,7 hPa 0,0 l/m 1,3 km/h (1 Bft) N-NO 22 -3,0 C 2,0 C 0,0 km/h (0 Bft)
04.01.2014 01:15 1,6 C 71 % 1017,7 hPa 0,0 l/m 1,6 km/h (1 Bft) O 90 -3,1 C 2,0 C 4,3 km/h (1 Bft)
04.01.2014 01:20 1,5 C 71 % 1017,7 hPa 0,0 l/m 0,8 km/h (0 Bft) O 90 -3,2 C 1,9 C 0,0 km/h (0 Bft)
04.01.2014 01:25 1,2 C 71 % 1017,4 hPa 0,0 l/m 0,6 km/h (0 Bft) N-NO 22 -3,5 C 1,7 C 2,3 km/h (1 Bft)
04.01.2014 01:30 1,3 C 71 % 1017,4 hPa 0,0 l/m 0,5 km/h (0 Bft) NO 45 -3,4 C 1,5 C 0,0 km/h (0 Bft)
04.01.2014 01:35 1,2 C 72 % 1017,4 hPa 0,0 l/m 0,5 km/h (0 Bft) NO 45 -3,3 C 1,5 C 1,6 km/h (1 Bft)
04.01.2014 01:40 1,3 C 72 % 1017,4 hPa 0,0 l/m 0,5 km/h (0 Bft) W-SW 247 -3,2 C 1,5 C 4,2 km/h (1 Bft)
04.01.2014 01:45 1,5 C 73 % 1017,4 hPa 0,0 l/m 1,8 km/h (1 Bft) NO 45 -2,8 C 1,5 C 7,9 km/h (2 Bft)
04.01.2014 01:50 1,6 C 73 % 1017,4 hPa 0,0 l/m 3,9 km/h (1 Bft) N-NO 22 -2,7 C 1,0 C 9,3 km/h (2 Bft)
04.01.2014 01:55 1,3 C 73 % 1017,4 hPa 0,0 l/m 4,5 km/h (1 Bft) NO 45 -3,0 C 0,7 C 8,0 km/h (2 Bft)
04.01.2014 02:00 1,6 C 73 % 1017,4 hPa 0,0 l/m 3,4 km/h (1 Bft) S-SO 157 -2,7 C 1,3 C 0,0 km/h (0 Bft)
04.01.2014 02:05 1,5 C 73 % 1017,6 hPa 0,0 l/m 1,9 km/h (1 Bft) S-SW 202 -2,8 C 1,9 C 0,0 km/h (0 Bft)
04.01.2014 02:10 1,3 C 73 % 1017,6 hPa 0,0 l/m 0,0 km/h (0 Bft) S-SW 202 -3,0 C 1,8 C 0,0 km/h (0 Bft)
04.01.2014 02:15 1,1 C 73 % 1017,6 hPa 0,0 l/m 0,0 km/h (0 Bft) S-SW 202 -3,2 C 1,7 C 0,0 km/h (0 Bft)
04.01.2014 02:20 1,4 C 74 % 1017,6 hPa 0,0 l/m 0,2 km/h (0 Bft) S-SO 157 -2,7 C 1,6 C 0,0 km/h (0 Bft)
04.01.2014 02:25 1,7 C 74 % 1017,8 hPa 0,0 l/m 0,3 km/h (0 Bft) S-SW 202 -2,4 C 1,7 C 2,6 km/h (1 Bft)
04.01.2014 02:30 1,5 C 73 % 1017,8 hPa 0,0 l/m 0,3 km/h (0 Bft) S-SO 157 -2,8 C 1,7 C 0,0 km/h (0 Bft)
04.01.2014 02:35 1,4 C 73 % 1017,8 hPa 0,0 l/m 0,3 km/h (0 Bft) S-SO 157 -2,9 C 1,7 C 0,0 km/h (0 Bft)
04.01.2014 02:40 1,5 C 73 % 1017,8 hPa 0,0 l/m 0,0 km/h (0 Bft) S 180 -2,8 C 1,7 C 0,0 km/h (0 Bft)
04.01.2014 02:45 1,4 C 73 % 1017,8 hPa 0,0 l/m 0,8 km/h (0 Bft) S 180 -2,9 C 1,9 C 2,1 km/h (1 Bft)
04.01.2014 02:50 2,4 C 74 % 1017,8 hPa 0,0 l/m 1,3 km/h (1 Bft) O-NO 67 -1,7 C 2,0 C 0,0 km/h (0 Bft)
04.01.2014 02:55 1,9 C 74 % 1017,8 hPa 0,0 l/m 0,8 km/h (0 Bft) O-NO 67 -2,2 C 2,1 C 0,0 km/h (0 Bft)
04.01.2014 03:00 1,2 C 73 % 1017,8 hPa 0,0 l/m 0,5 km/h (0 Bft) S 180 -3,1 C 2,0 C 2,4 km/h (1 Bft)
04.01.2014 03:05 1,1 C 74 % 1017,8 hPa 0,0 l/m 0,6 km/h (0 Bft) O-NO 67 -3,0 C 1,8 C 1,8 km/h (1 Bft)
04.01.2014 03:10 1,2 C 74 % 1017,8 hPa 0,0 l/m 1,0 km/h (0 Bft) O-NO 67 -2,9 C 1,6 C 6,1 km/h (2 Bft)
04.01.2014 03:15 2,4 C 75 % 1017,8 hPa 0,0 l/m 2,6 km/h (1 Bft) O-SO 112 -1,6 C 1,7 C 4,8 km/h (1 Bft)
04.01.2014 03:20 3,3 C 72 % 1017,8 hPa 0,0 l/m 2,7 km/h (1 Bft) O-NO 67 -1,3 C 1,9 C 1,6 km/h (1 Bft)
04.01.2014 03:25 3,2 C 71 % 1017,5 hPa 0,0 l/m 1,3 km/h (1 Bft) O-SO 112 -1,5 C 2,1 C 0,0 km/h (0 Bft)
04.01.2014 03:30 1,6 C 72 % 1017,5 hPa 0,0 l/m 1,1 km/h (1 Bft) S-SO 157 -2,9 C 2,2 C 2,1 km/h (1 Bft)
04.01.2014 03:35 1,7 C 74 % 1017,5 hPa 0,0 l/m 2,9 km/h (1 Bft) NO 45 -2,4 C 1,8 C 6,4 km/h (2 Bft)
04.01.2014 03:40 2,3 C 74 % 1017,5 hPa 0,0 l/m 3,9 km/h (1 Bft) W 270 -1,8 C 1,3 C 3,4 km/h (1 Bft)
04.01.2014 03:45 1,8 C 73 % 1017,4 hPa 0,0 l/m 3,4 km/h (1 Bft) O 90 -2,5 C 1,5 C 5,3 km/h (1 Bft)
04.01.2014 03:50 2,0 C 73 % 1017,4 hPa 0,0 l/m 2,1 km/h (1 Bft) O 90 -2,3 C 2,0 C 0,0 km/h (0 Bft)
04.01.2014 03:55 1,7 C 74 % 1017,4 hPa 0,0 l/m 1,3 km/h (1 Bft) O 90 -2,4 C 2,0 C 0,0 km/h (0 Bft)
04.01.2014 04:00 1,5 C 74 % 1017,4 hPa 0,0 l/m 0,5 km/h (0 Bft) S-SO 157 -2,6 C 2,0 C 0,0 km/h (0 Bft)
04.01.2014 04:05 1,4 C 74 % 1017,0 hPa 0,0 l/m 0,5 km/h (0 Bft) S-SO 157 -2,7 C 2,0 C 0,0 km/h (0 Bft)
04.01.2014 04:10 1,2 C 74 % 1017,0 hPa 0,0 l/m 0,0 km/h (0 Bft) S-SO 157 -2,9 C 1,8 C 0,0 km/h (0 Bft)
04.01.2014 04:15 1,4 C 75 % 1017,0 hPa 0,0 l/m 0,6 km/h (0 Bft) O 90 -2,5 C 1,7 C 4,2 km/h (1 Bft)
04.01.2014 04:20 2,0 C 75 % 1017,0 hPa 0,0 l/m 1,9 km/h (1 Bft) O 90 -2,0 C 1,9 C 2,3 km/h (1 Bft)
04.01.2014 04:25 1,9 C 75 % 1017,0 hPa 0,0 l/m 1,8 km/h (1 Bft) O 90 -2,1 C 2,0 C 0,0 km/h (0 Bft)
04.01.2014 04:30 1,5 C 75 % 1017,0 hPa 0,0 l/m 0,2 km/h (0 Bft) O-SO 112 -2,4 C 1,9 C 0,0 km/h (0 Bft)
04.01.2014 04:34 1,4 C 76 % 1017,0 hPa 0,0 l/m 0,0 km/h (0 Bft) O-SO 112 -2,4 C 1,8 C 0,0 km/h (0 Bft)
04.01.2014 04:35 1,4 C 76 % 1017,0 hPa 0,0 l/m 0,0 km/h (0 Bft) O-SO 112 -2,4 C 1,8 C 0,0 km/h (0 Bft)
04.01.2014 04:40 1,4 C 76 % 1017,0 hPa 0,0 l/m 0,0 km/h (0 Bft) O-SO 112 -2,4 C 1,7 C 0,0 km/h (0 Bft)
04.01.2014 04:45 1,3 C 76 % 1016,8 hPa 0,0 l/m 0,0 km/h (0 Bft) O-SO 112 -2,5 C 1,7 C 0,0 km/h (0 Bft)
04.01.2014 04:50 1,3 C 76 % 1016,8 hPa 0,0 l/m 0,2 km/h (0 Bft) O-SO 112 -2,5 C 1,6 C 0,0 km/h (0 Bft)
04.01.2014 04:55 1,3 C 76 % 1016,8 hPa 0,0 l/m 0,2 km/h (0 Bft) SO 135 -2,5 C 1,6 C 0,0 km/h (0 Bft)
04.01.2014 05:00 1,3 C 76 % 1016,8 hPa 0,0 l/m 0,0 km/h (0 Bft) O 90 -2,5 C 1,6 C 0,0 km/h (0 Bft)
04.01.2014 05:05 1,1 C 76 % 1016,6 hPa 0,0 l/m 0,0 km/h (0 Bft) SO 135 -2,6 C 1,6 C 0,0 km/h (0 Bft)
04.01.2014 05:10 1,1 C 77 % 1016,6 hPa 0,0 l/m 0,0 km/h (0 Bft) O 90 -2,5 C 1,4 C 0,0 km/h (0 Bft)
04.01.2014 05:15 1,0 C 77 % 1016,6 hPa 0,0 l/m 0,0 km/h (0 Bft) O 90 -2,6 C 1,4 C 0,0 km/h (0 Bft)
04.01.2014 05:20 1,1 C 77 % 1016,6 hPa 0,0 l/m 0,0 km/h (0 Bft) O 90 -2,5 C 1,4 C 0,0 km/h (0 Bft)
04.01.2014 05:25 1,1 C 77 % 1016,3 hPa 0,0 l/m 0,0 km/h (0 Bft) O 90 -2,5 C 1,4 C 0,0 km/h (0 Bft)
04.01.2014 05:30 1,2 C 77 % 1016,3 hPa 0,0 l/m 0,0 km/h (0 Bft) O 90 -2,4 C 1,4 C 0,0 km/h (0 Bft)
04.01.2014 05:35 1,3 C 77 % 1016,3 hPa 0,0 l/m 0,2 km/h (0 Bft) O 90 -2,3 C 1,5 C 0,0 km/h (0 Bft)
04.01.2014 05:40 1,3 C 78 % 1016,3 hPa 0,0 l/m 0,5 km/h (0 Bft) O 90 -2,1 C 1,6 C 1,9 km/h (1 Bft)
04.01.2014 05:45 1,4 C 78 % 1016,0 hPa 0,0 l/m 1,1 km/h (1 Bft) N-NO 22 -2,0 C 1,8 C 0,0 km/h (0 Bft)
04.01.2014 05:50 1,3 C 78 % 1016,0 hPa 0,0 l/m 0,8 km/h (0 Bft) N-NO 22 -2,1 C 2,0 C 0,0 km/h (0 Bft)
04.01.2014 05:55 1,1 C 78 % 1016,0 hPa 0,0 l/m 1,1 km/h (1 Bft) S 180 -2,3 C 1,9 C 5,0 km/h (1 Bft)
04.01.2014 06:00 1,0 C 78 % 1016,0 hPa 0,0 l/m 1,8 km/h (1 Bft) O-SO 112 -2,4 C 1,5 C 2,9 km/h (1 Bft)
04.01.2014 06:05 1,5 C 78 % 1015,8 hPa 0,0 l/m 2,7 km/h (1 Bft) O-NO 67 -1,9 C 1,4 C 7,2 km/h (2 Bft)
04.01.2014 06:10 2,0 C 77 % 1015,8 hPa 0,0 l/m 4,3 km/h (1 Bft) O-NO 67 -1,6 C 0,8 C 3,7 km/h (1 Bft)
04.01.2014 06:15 2,0 C 77 % 1015,8 hPa 0,0 l/m 3,1 km/h (1 Bft) NO 45 -1,6 C 1,7 C 0,0 km/h (0 Bft)
04.01.2014 06:20 1,5 C 77 % 1015,8 hPa 0,0 l/m 0,3 km/h (0 Bft) O 90 -2,1 C 2,2 C 0,0 km/h (0 Bft)
04.01.2014 06:25 1,4 C 77 % 1015,6 hPa 0,0 l/m 0,0 km/h (0 Bft) O 90 -2,2 C 2,1 C 0,0 km/h (0 Bft)
04.01.2014 06:30 1,5 C 78 % 1015,6 hPa 0,0 l/m 0,3 km/h (0 Bft) N-NO 22 -1,9 C 2,0 C 0,0 km/h (0 Bft)
04.01.2014 06:35 1,6 C 78 % 1015,6 hPa 0,0 l/m 1,0 km/h (0 Bft) N-NO 22 -1,8 C 2,0 C 4,2 km/h (1 Bft)
04.01.2014 06:40 2,6 C 78 % 1015,6 hPa 0,0 l/m 2,1 km/h (1 Bft) N-NO 22 -0,8 C 2,8 C 3,4 km/h (1 Bft)
04.01.2014 06:45 2,5 C 78 % 1015,2 hPa 0,0 l/m 2,4 km/h (1 Bft) N 360 -0,9 C 3,2 C 2,1 km/h (1 Bft)
04.01.2014 06:50 3,0 C 77 % 1015,2 hPa 0,0 l/m 1,6 km/h (1 Bft) O-SO 112 -0,6 C 3,6 C 5,5 km/h (1 Bft)
04.01.2014 06:55 3,4 C 75 % 1015,2 hPa 0,0 l/m 2,1 km/h (1 Bft) NW 315 -0,6 C 4,2 C 1,8 km/h (1 Bft)
04.01.2014 07:00 2,6 C 75 % 1015,2 hPa 0,0 l/m 2,3 km/h (1 Bft) W-NW 292 -1,4 C 4,2 C 2,6 km/h (1 Bft)
04.01.2014 07:05 2,1 C 75 % 1014,7 hPa 0,0 l/m 1,3 km/h (1 Bft) W 270 -1,9 C 4,0 C 0,0 km/h (0 Bft)
04.01.2014 07:10 1,9 C 75 % 1014,7 hPa 0,0 l/m 0,8 km/h (0 Bft) W 270 -2,1 C 3,4 C 0,0 km/h (0 Bft)
04.01.2014 07:15 2,0 C 75 % 1014,7 hPa 0,0 l/m 0,2 km/h (0 Bft) W 270 -2,0 C 3,2 C 0,0 km/h (0 Bft)
04.01.2014 07:20 2,0 C 76 % 1014,7 hPa 0,0 l/m 0,2 km/h (0 Bft) W 270 -1,8 C 2,9 C 0,0 km/h (0 Bft)
04.01.2014 07:25 1,9 C 76 % 1014,3 hPa 0,0 l/m 0,2 km/h (0 Bft) W 270 -1,9 C 2,8 C 0,0 km/h (0 Bft)
04.01.2014 07:30 2,0 C 76 % 1014,3 hPa 0,0 l/m 0,6 km/h (0 Bft) W 270 -1,8 C 2,6 C 1,8 km/h (1 Bft)
04.01.2014 07:35 2,3 C 76 % 1014,3 hPa 0,0 l/m 1,1 km/h (1 Bft) O-NO 67 -1,5 C 2,7 C 0,0 km/h (0 Bft)
04.01.2014 07:40 3,0 C 75 % 1014,3 hPa 0,0 l/m 1,3 km/h (1 Bft) N 360 -1,0 C 3,6 C 1,8 km/h (1 Bft)
04.01.2014 07:45 3,1 C 74 % 1014,2 hPa 0,0 l/m 1,1 km/h (1 Bft) W-SW 247 -1,1 C 4,2 C 6,4 km/h (2 Bft)
04.01.2014 07:50 3,1 C 73 % 1014,2 hPa 0,0 l/m 1,3 km/h (1 Bft) W-NW 292 -1,3 C 4,6 C 0,0 km/h (0 Bft)
04.01.2014 07:55 3,0 C 73 % 1014,2 hPa 0,0 l/m 1,4 km/h (1 Bft) O-SO 112 -1,4 C 4,4 C 0,0 km/h (0 Bft)
04.01.2014 08:00 2,9 C 74 % 1014,2 hPa 0,0 l/m 0,6 km/h (0 Bft) O 90 -1,3 C 4,2 C 0,0 km/h (0 Bft)
04.01.2014 08:05 2,8 C 73 % 1013,8 hPa 0,0 l/m 0,8 km/h (0 Bft) SW 225 -1,5 C 4,1 C 0,0 km/h (0 Bft)
04.01.2014 08:10 2,8 C 73 % 1013,8 hPa 0,0 l/m 1,1 km/h (1 Bft) S 180 -1,5 C 3,9 C 0,0 km/h (0 Bft)
04.01.2014 08:15 3,0 C 71 % 1013,8 hPa 0,0 l/m 1,3 km/h (1 Bft) N 360 -1,7 C 3,9 C 0,0 km/h (0 Bft)
04.01.2014 08:20 2,4 C 73 % 1013,8 hPa 0,0 l/m 0,6 km/h (0 Bft) NO 45 -1,9 C 3,6 C 2,7 km/h (1 Bft)
04.01.2014 08:25 2,8 C 73 % 1013,6 hPa 0,0 l/m 1,0 km/h (0 Bft) O-NO 67 -1,5 C 3,4 C 0,0 km/h (0 Bft)
04.01.2014 08:30 3,5 C 70 % 1013,6 hPa 0,0 l/m 1,4 km/h (1 Bft) O 90 -1,4 C 3,3 C 3,9 km/h (1 Bft)
04.01.2014 08:35 3,1 C 69 % 1013,6 hPa 0,0 l/m 1,1 km/h (1 Bft) NO 45 -2,0 C 3,4 C 3,9 km/h (1 Bft)
04.01.2014 08:40 3,8 C 69 % 1013,6 hPa 0,0 l/m 2,4 km/h (1 Bft) O-NO 67 -1,4 C 3,5 C 5,1 km/h (1 Bft)
04.01.2014 08:45 3,9 C 68 % 1013,4 hPa 0,0 l/m 3,4 km/h (1 Bft) O 90 -1,5 C 3,7 C 1,8 km/h (1 Bft)
04.01.2014 08:50 3,4 C 68 % 1013,4 hPa 0,0 l/m 1,6 km/h (1 Bft) O 90 -1,9 C 4,1 C 0,0 km/h (0 Bft)
04.01.2014 08:55 3,9 C 69 % 1013,4 hPa 0,0 l/m 1,4 km/h (1 Bft) O-NO 67 -1,3 C 4,2 C 4,7 km/h (1 Bft)
04.01.2014 09:00 4,1 C 68 % 1013,4 hPa 0,0 l/m 1,6 km/h (1 Bft) NO 45 -1,3 C 4,5 C 0,0 km/h (0 Bft)
04.01.2014 09:05 3,6 C 68 % 1013,1 hPa 0,0 l/m 1,3 km/h (1 Bft) O-NO 67 -1,7 C 4,6 C 3,1 km/h (1 Bft)
04.01.2014 09:10 4,5 C 69 % 1013,1 hPa 0,0 l/m 2,1 km/h (1 Bft) N-NO 22 -0,7 C 5,1 C 0,0 km/h (0 Bft)
04.01.2014 09:15 4,0 C 68 % 1013,1 hPa 0,0 l/m 2,1 km/h (1 Bft) N-NO 22 -1,4 C 5,3 C 1,6 km/h (1 Bft)
04.01.2014 09:20 3,4 C 69 % 1013,1 hPa 0,0 l/m 0,6 km/h (0 Bft) O-NO 67 -1,7 C 4,9 C 0,0 km/h (0 Bft)
04.01.2014 09:25 3,4 C 69 % 1012,9 hPa 0,0 l/m 0,6 km/h (0 Bft) NO 45 -1,7 C 4,9 C 0,0 km/h (0 Bft)
04.01.2014 09:30 3,2 C 69 % 1012,9 hPa 0,0 l/m 1,0 km/h (0 Bft) O-NO 67 -1,9 C 4,7 C 0,0 km/h (0 Bft)
04.01.2014 09:35 3,4 C 70 % 1012,9 hPa 0,0 l/m 1,1 km/h (1 Bft) N-NO 22 -1,5 C 4,6 C 0,0 km/h (0 Bft)
04.01.2014 09:40 3,3 C 71 % 1012,9 hPa 0,0 l/m 1,6 km/h (1 Bft) N-NO 22 -1,4 C 4,1 C 3,7 km/h (1 Bft)
04.01.2014 09:45 3,1 C 72 % 1012,2 hPa 0,0 l/m 1,8 km/h (1 Bft) NW 315 -1,4 C 3,8 C 3,1 km/h (1 Bft)
04.01.2014 09:50 3,1 C 76 % 1012,2 hPa 0,0 l/m 3,2 km/h (1 Bft) O 90 -0,7 C 3,0 C 6,0 km/h (2 Bft)
04.01.2014 09:55 3,4 C 76 % 1012,2 hPa 0,0 l/m 3,4 km/h (1 Bft) O-NO 67 -0,4 C 2,8 C 4,3 km/h (1 Bft)
04.01.2014 10:00 3,4 C 79 % 1012,2 hPa 0,0 l/m 3,5 km/h (1 Bft) NO 45 0,1 C 2,8 C 2,3 km/h (1 Bft)
04.01.2014 10:05 3,5 C 80 % 1012,1 hPa 0,0 l/m 3,2 km/h (1 Bft) O-NO 67 0,4 C 3,0 C 0,0 km/h (0 Bft)
04.01.2014 10:10 3,3 C 83 % 1012,1 hPa 0,0 l/m 1,1 km/h (1 Bft) O-NO 67 0,7 C 3,5 C 1,6 km/h (1 Bft)
04.01.2014 10:15 3,6 C 85 % 1012,1 hPa 0,0 l/m 0,6 km/h (0 Bft) O-NO 67 1,3 C 3,7 C 1,6 km/h (1 Bft)
04.01.2014 10:20 3,8 C 87 % 1012,1 hPa 0,0 l/m 1,3 km/h (1 Bft) O-NO 67 1,8 C 3,9 C 0,0 km/h (0 Bft)
04.01.2014 10:25 3,5 C 88 % 1011,4 hPa 0,0 l/m 0,8 km/h (0 Bft) O-SO 112 1,7 C 4,1 C 0,0 km/h (0 Bft)
04.01.2014 10:28 3,1 C 88 % 1011,4 hPa 0,0 l/m 0,8 km/h (0 Bft) O-SO 112 1,3 C 4,0 C 2,6 km/h (1 Bft)
04.01.2014 10:30 3,1 C 88 % 1011,4 hPa 0,0 l/m 0,8 km/h (0 Bft) O-SO 112 1,3 C 4,0 C 2,6 km/h (1 Bft)
04.01.2014 10:35 3,0 C 89 % 1011,4 hPa 0,0 l/m 1,3 km/h (1 Bft) NW 315 1,4 C 3,8 C 4,2 km/h (1 Bft)
04.01.2014 10:40 3,0 C 88 % 1011,4 hPa 0,0 l/m 2,1 km/h (1 Bft) N-NO 22 1,2 C 3,6 C 2,3 km/h (1 Bft)
04.01.2014 10:45 3,5 C 89 % 1011,2 hPa 0,0 l/m 2,7 km/h (1 Bft) NO 45 1,9 C 3,7 C 1,8 km/h (1 Bft)
04.01.2014 10:50 3,5 C 89 % 1011,2 hPa 0,0 l/m 1,8 km/h (1 Bft) NO 45 1,9 C 4,0 C 0,0 km/h (0 Bft)
04.01.2014 10:55 3,5 C 90 % 1011,2 hPa 0,0 l/m 1,1 km/h (1 Bft) W-SW 247 2,0 C 4,2 C 3,1 km/h (1 Bft)
04.01.2014 11:00 3,1 C 90 % 1011,2 hPa 0,0 l/m 1,0 km/h (0 Bft) S 180 1,6 C 4,1 C 2,1 km/h (1 Bft)
04.01.2014 11:05 3,2 C 90 % 1010,7 hPa 0,0 l/m 1,1 km/h (1 Bft) S 180 1,7 C 4,0 C 2,1 km/h (1 Bft)
04.01.2014 11:10 3,6 C 90 % 1010,7 hPa 0,0 l/m 1,1 km/h (1 Bft) S-SO 157 2,1 C 4,2 C 2,6 km/h (1 Bft)
04.01.2014 11:15 3,9 C 90 % 1010,7 hPa 0,0 l/m 1,3 km/h (1 Bft) W 270 2,4 C 4,3 C 0,0 km/h (0 Bft)
04.01.2014 11:20 3,7 C 90 % 1010,7 hPa 0,0 l/m 0,8 km/h (0 Bft) W 270 2,2 C 4,5 C 0,0 km/h (0 Bft)
04.01.2014 11:25 4,0 C 90 % 1009,8 hPa 0,0 l/m 0,0 km/h (0 Bft) W 270 2,5 C 4,8 C 0,0 km/h (0 Bft)
04.01.2014 11:30 3,5 C 90 % 1009,8 hPa 0,0 l/m 1,0 km/h (0 Bft) N-NO 22 2,0 C 4,8 C 2,3 km/h (1 Bft)
04.01.2014 11:35 3,7 C 90 % 1009,8 hPa 0,0 l/m 1,6 km/h (1 Bft) N-NW 337 2,2 C 4,8 C 2,4 km/h (1 Bft)
04.01.2014 11:40 3,8 C 90 % 1009,8 hPa 0,0 l/m 1,0 km/h (0 Bft) NW 315 2,3 C 4,8 C 2,6 km/h (1 Bft)
04.01.2014 11:45 3,6 C 90 % 1009,5 hPa 0,0 l/m 1,1 km/h (1 Bft) S-SW 202 2,1 C 4,7 C 2,7 km/h (1 Bft)
04.01.2014 11:50 3,5 C 90 % 1009,5 hPa 0,0 l/m 2,3 km/h (1 Bft) S-SO 157 2,0 C 4,5 C 3,1 km/h (1 Bft)
04.01.2014 11:55 3,7 C 91 % 1009,5 hPa 0,0 l/m 1,9 km/h (1 Bft) S-SW 202 2,4 C 4,6 C 0,0 km/h (0 Bft)
04.01.2014 12:00 3,7 C 90 % 1009,5 hPa 0,0 l/m 0,5 km/h (0 Bft) N 360 2,2 C 4,7 C 0,0 km/h (0 Bft)
04.01.2014 12:05 3,7 C 90 % 1009,2 hPa 0,0 l/m 0,5 km/h (0 Bft) N 360 2,2 C 4,7 C 0,0 km/h (0 Bft)
04.01.2014 12:10 3,7 C 90 % 1009,2 hPa 0,0 l/m 0,6 km/h (0 Bft) S-SW 202 2,2 C 4,9 C 2,6 km/h (1 Bft)
04.01.2014 12:15 3,7 C 90 % 1009,2 hPa 0,0 l/m 1,3 km/h (1 Bft) S-SO 157 2,2 C 4,9 C 0,0 km/h (0 Bft)
04.01.2014 12:20 3,9 C 90 % 1009,2 hPa 0,0 l/m 1,4 km/h (1 Bft) S-SO 157 2,4 C 4,8 C 0,0 km/h (0 Bft)
04.01.2014 12:25 4,0 C 89 % 1008,6 hPa 0,0 l/m 0,3 km/h (0 Bft) W-SW 247 2,4 C 4,9 C 0,0 km/h (0 Bft)
04.01.2014 12:30 4,1 C 90 % 1008,6 hPa 0,0 l/m 0,0 km/h (0 Bft) N-NW 337 2,6 C 5,1 C 0,0 km/h (0 Bft)
04.01.2014 12:35 4,2 C 90 % 1008,6 hPa 0,0 l/m 0,0 km/h (0 Bft) NW 315 2,7 C 5,3 C 0,0 km/h (0 Bft)
04.01.2014 12:40 4,4 C 90 % 1008,6 hPa 0,0 l/m 0,0 km/h (0 Bft) NW 315 2,9 C 5,5 C 0,0 km/h (0 Bft)
04.01.2014 12:45 4,4 C 90 % 1007,9 hPa 0,0 l/m 0,0 km/h (0 Bft) NW 315 2,9 C 5,6 C 0,0 km/h (0 Bft)
04.01.2014 12:50 4,4 C 90 % 1007,9 hPa 0,0 l/m 0,8 km/h (0 Bft) W 270 2,9 C 5,7 C 3,1 km/h (1 Bft)
04.01.2014 12:55 4,2 C 90 % 1007,9 hPa 0,0 l/m 1,1 km/h (1 Bft) W 270 2,7 C 5,6 C 0,0 km/h (0 Bft)
04.01.2014 13:00 4,4 C 90 % 1007,9 hPa 0,0 l/m 0,6 km/h (0 Bft) SO 135 2,9 C 5,5 C 0,0 km/h (0 Bft)
04.01.2014 13:05 4,5 C 90 % 1007,6 hPa 0,0 l/m 0,8 km/h (0 Bft) S 180 3,0 C 5,6 C 1,6 km/h (1 Bft)
04.01.2014 13:10 4,6 C 90 % 1007,6 hPa 0,0 l/m 1,0 km/h (0 Bft) O-NO 67 3,1 C 5,7 C 3,5 km/h (1 Bft)
04.01.2014 13:15 4,9 C 90 % 1007,6 hPa 0,0 l/m 0,6 km/h (0 Bft) NO 45 3,4 C 5,7 C 0,0 km/h (0 Bft)
04.01.2014 13:20 4,8 C 90 % 1007,6 hPa 0,0 l/m 1,0 km/h (0 Bft) S-SO 157 3,3 C 6,0 C 0,0 km/h (0 Bft)
04.01.2014 13:25 4,7 C 90 % 1007,2 hPa 0,0 l/m 0,6 km/h (0 Bft) SO 135 3,2 C 6,0 C 2,9 km/h (1 Bft)
04.01.2014 13:30 4,9 C 89 % 1007,2 hPa 0,0 l/m 1,6 km/h (1 Bft) O-SO 112 3,2 C 6,1 C 3,7 km/h (1 Bft)
04.01.2014 13:35 5,1 C 89 % 1007,2 hPa 0,0 l/m 1,8 km/h (1 Bft) W 270 3,4 C 6,2 C 0,0 km/h (0 Bft)
04.01.2014 13:40 5,0 C 89 % 1007,2 hPa 0,0 l/m 1,6 km/h (1 Bft) NW 315 3,3 C 6,3 C 3,2 km/h (1 Bft)
04.01.2014 13:45 5,1 C 89 % 1006,4 hPa 0,0 l/m 1,4 km/h (1 Bft) NW 315 3,4 C 6,3 C 7,1 km/h (2 Bft)
04.01.2014 13:50 5,3 C 89 % 1006,4 hPa 0,0 l/m 2,1 km/h (1 Bft) S 180 3,6 C 6,3 C 2,1 km/h (1 Bft)
04.01.2014 13:55 5,0 C 88 % 1006,4 hPa 0,0 l/m 2,4 km/h (1 Bft) SO 135 3,2 C 6,3 C 4,7 km/h (1 Bft)
04.01.2014 14:00 4,9 C 88 % 1006,4 hPa 0,0 l/m 4,2 km/h (1 Bft) O-SO 112 3,1 C 5,7 C 6,1 km/h (2 Bft)
04.01.2014 14:05 5,0 C 87 % 1006,1 hPa 0,0 l/m 4,8 km/h (1 Bft) W 270 3,0 C 5,3 C 1,9 km/h (1 Bft)
04.01.2014 14:10 4,9 C 87 % 1006,1 hPa 0,0 l/m 3,7 km/h (1 Bft) S 180 2,9 C 5,7 C 3,1 km/h (1 Bft)
04.01.2014 14:15 4,6 C 88 % 1006,1 hPa 0,0 l/m 1,9 km/h (1 Bft) SO 135 2,8 C 5,8 C 0,0 km/h (0 Bft)
04.01.2014 14:20 4,5 C 88 % 1006,1 hPa 0,0 l/m 1,3 km/h (1 Bft) S-SO 157 2,7 C 5,7 C 5,5 km/h (1 Bft)
04.01.2014 14:25 4,4 C 88 % 1005,6 hPa 0,0 l/m 2,1 km/h (1 Bft) S 180 2,6 C 5,6 C 3,2 km/h (1 Bft)
04.01.2014 14:30 4,5 C 88 % 1005,6 hPa 0,0 l/m 2,6 km/h (1 Bft) SO 135 2,7 C 5,4 C 0,0 km/h (0 Bft)
04.01.2014 14:35 4,4 C 87 % 1005,6 hPa 0,0 l/m 1,9 km/h (1 Bft) S-SO 157 2,4 C 5,4 C 2,3 km/h (1 Bft)
04.01.2014 14:40 4,3 C 87 % 1005,6 hPa 0,0 l/m 1,6 km/h (1 Bft) O-SO 112 2,3 C 5,3 C 3,1 km/h (1 Bft)
04.01.2014 14:45 4,4 C 87 % 1005,4 hPa 0,0 l/m 1,9 km/h (1 Bft) O-SO 112 2,4 C 5,2 C 2,3 km/h (1 Bft)
04.01.2014 14:50 4,1 C 87 % 1005,4 hPa 0,0 l/m 0,6 km/h (0 Bft) SO 135 2,1 C 5,1 C 0,0 km/h (0 Bft)
04.01.2014 14:55 3,9 C 87 % 1005,4 hPa 0,0 l/m 0,6 km/h (0 Bft) S 180 1,9 C 5,0 C 1,6 km/h (1 Bft)
04.01.2014 15:00 3,9 C 87 % 1005,4 hPa 0,0 l/m 1,4 km/h (1 Bft) O-SO 112 1,9 C 4,8 C 0,0 km/h (0 Bft)
04.01.2014 15:05 4,0 C 86 % 1005,2 hPa 0,0 l/m 1,9 km/h (1 Bft) SO 135 1,9 C 4,7 C 4,0 km/h (1 Bft)
04.01.2014 15:10 4,0 C 86 % 1005,2 hPa 0,0 l/m 2,7 km/h (1 Bft) O-SO 112 1,9 C 4,7 C 2,3 km/h (1 Bft)
04.01.2014 15:15 4,1 C 85 % 1005,2 hPa 0,0 l/m 3,7 km/h (1 Bft) O 90 1,8 C 4,3 C 4,8 km/h (1 Bft)
04.01.2014 15:20 4,2 C 83 % 1005,2 hPa 0,0 l/m 2,6 km/h (1 Bft) O 90 1,6 C 4,6 C 3,9 km/h (1 Bft)
04.01.2014 15:25 4,2 C 82 % 1005,2 hPa 0,0 l/m 2,3 km/h (1 Bft) O-NO 67 1,4 C 4,6 C 3,7 km/h (1 Bft)
04.01.2014 15:30 4,2 C 82 % 1005,2 hPa 0,0 l/m 3,1 km/h (1 Bft) O 90 1,4 C 4,6 C 1,6 km/h (1 Bft)
04.01.2014 15:35 4,1 C 81 % 1005,2 hPa 0,0 l/m 3,7 km/h (1 Bft) SO 135 1,1 C 4,2 C 4,7 km/h (1 Bft)
04.01.2014 15:40 3,7 C 81 % 1005,2 hPa 0,0 l/m 2,9 km/h (1 Bft) S-SW 202 0,7 C 4,5 C 1,9 km/h (1 Bft)
04.01.2014 15:45 3,5 C 81 % 1005,2 hPa 0,0 l/m 1,9 km/h (1 Bft) S 180 0,6 C 4,3 C 2,3 km/h (1 Bft)
04.01.2014 15:50 3,6 C 81 % 1005,2 hPa 0,0 l/m 2,1 km/h (1 Bft) O-SO 112 0,7 C 4,2 C 4,0 km/h (1 Bft)
04.01.2014 15:55 3,6 C 81 % 1005,2 hPa 0,0 l/m 2,4 km/h (1 Bft) O-SO 112 0,7 C 4,2 C 0,0 km/h (0 Bft)
04.01.2014 16:00 3,7 C 80 % 1005,2 hPa 0,0 l/m 1,1 km/h (1 Bft) O 90 0,6 C 4,2 C 0,0 km/h (0 Bft)
04.01.2014 16:05 3,4 C 80 % 1005,1 hPa 0,0 l/m 0,5 km/h (0 Bft) O 90 0,3 C 4,1 C 2,1 km/h (1 Bft)
04.01.2014 16:10 3,4 C 80 % 1005,1 hPa 0,0 l/m 0,3 km/h (0 Bft) SO 135 0,3 C 4,0 C 0,0 km/h (0 Bft)
04.01.2014 16:15 3,6 C 80 % 1005,1 hPa 0,0 l/m 1,6 km/h (1 Bft) O-SO 112 0,5 C 4,0 C 5,6 km/h (1 Bft)
04.01.2014 16:20 3,5 C 79 % 1005,1 hPa 0,0 l/m 2,3 km/h (1 Bft) SO 135 0,2 C 4,0 C 2,9 km/h (1 Bft)
04.01.2014 16:25 3,7 C 79 % 1004,9 hPa 0,0 l/m 2,7 km/h (1 Bft) O 90 0,4 C 4,0 C 4,8 km/h (1 Bft)
04.01.2014 16:28 3,6 C 79 % 1004,9 hPa 0,0 l/m 3,2 km/h (1 Bft) O 90 0,3 C 3,7 C 4,8 km/h (1 Bft)
04.01.2014 16:30 3,6 C 79 % 1004,9 hPa 0,0 l/m 3,2 km/h (1 Bft) O 90 0,3 C 3,7 C 4,8 km/h (1 Bft)
04.01.2014 16:35 3,4 C 79 % 1004,9 hPa 0,0 l/m 2,6 km/h (1 Bft) O-NO 67 0,1 C 3,8 C 1,8 km/h (1 Bft)
04.01.2014 16:40 3,3 C 79 % 1004,9 hPa 0,0 l/m 0,8 km/h (0 Bft) O-NO 67 0,0 C 3,6 C 0,0 km/h (0 Bft)
04.01.2014 16:45 3,5 C 79 % 1004,8 hPa 0,0 l/m 1,1 km/h (1 Bft) O-NO 67 0,2 C 3,6 C 1,8 km/h (1 Bft)
04.01.2014 16:50 3,5 C 79 % 1004,8 hPa 0,0 l/m 2,4 km/h (1 Bft) O 90 0,2 C 3,6 C 4,5 km/h (1 Bft)
04.01.2014 16:55 3,6 C 79 % 1004,8 hPa 0,0 l/m 2,7 km/h (1 Bft) O 90 0,3 C 3,6 C 3,9 km/h (1 Bft)
04.01.2014 17:00 3,4 C 78 % 1004,8 hPa 0,0 l/m 3,2 km/h (1 Bft) SO 135 -0,1 C 3,5 C 0,0 km/h (0 Bft)
04.01.2014 17:05 2,7 C 78 % 1004,6 hPa 0,0 l/m 2,6 km/h (1 Bft) S 180 -0,7 C 3,5 C 0,0 km/h (0 Bft)
04.01.2014 17:10 2,3 C 79 % 1004,6 hPa 0,0 l/m 0,8 km/h (0 Bft) S-SO 157 -1,0 C 3,0 C 0,0 km/h (0 Bft)
04.01.2014 17:15 2,4 C 80 % 1004,6 hPa 0,0 l/m 0,2 km/h (0 Bft) O-NO 67 -0,7 C 2,7 C 2,6 km/h (1 Bft)
04.01.2014 17:20 2,4 C 81 % 1004,6 hPa 0,0 l/m 0,6 km/h (0 Bft) O-NO 67 -0,5 C 2,7 C 0,0 km/h (0 Bft)
04.01.2014 17:25 2,4 C 81 % 1004,3 hPa 0,0 l/m 1,3 km/h (1 Bft) O-NO 67 -0,5 C 2,7 C 4,0 km/h (1 Bft)
04.01.2014 17:30 2,9 C 82 % 1004,3 hPa 0,0 l/m 1,8 km/h (1 Bft) S-SO 157 0,1 C 3,0 C 0,0 km/h (0 Bft)
04.01.2014 17:35 2,7 C 82 % 1004,3 hPa 0,0 l/m 1,8 km/h (1 Bft) O 90 -0,1 C 3,1 C 2,9 km/h (1 Bft)
04.01.2014 17:40 2,6 C 82 % 1004,3 hPa 0,0 l/m 0,5 km/h (0 Bft) O 90 -0,2 C 3,1 C 0,0 km/h (0 Bft)
04.01.2014 17:45 3,1 C 82 % 1004,4 hPa 0,0 l/m 1,3 km/h (1 Bft) O-SO 112 0,3 C 3,1 C 4,5 km/h (1 Bft)
04.01.2014 17:50 3,0 C 81 % 1004,4 hPa 0,0 l/m 1,3 km/h (1 Bft) S-SO 157 0,1 C 3,3 C 0,0 km/h (0 Bft)
04.01.2014 17:55 2,8 C 82 % 1004,4 hPa 0,0 l/m 1,4 km/h (1 Bft) SO 135 0,0 C 3,2 C 4,3 km/h (1 Bft)
04.01.2014 18:00 4,1 C 81 % 1004,4 hPa 0,0 l/m 3,2 km/h (1 Bft) S-SO 157 1,1 C 3,5 C 3,9 km/h (1 Bft)
04.01.2014 18:05 4,1 C 80 % 1004,6 hPa 0,0 l/m 4,7 km/h (1 Bft) S-SO 157 1,0 C 3,3 C 5,5 km/h (1 Bft)
04.01.2014 18:10 4,5 C 78 % 1004,6 hPa 0,0 l/m 5,3 km/h (1 Bft) S-SO 157 1,0 C 3,7 C 7,9 km/h (2 Bft)
04.01.2014 18:15 4,7 C 77 % 1004,6 hPa 0,0 l/m 5,1 km/h (1 Bft) S-SO 157 1,0 C 3,9 C 3,7 km/h (1 Bft)
04.01.2014 18:20 4,8 C 75 % 1004,6 hPa 0,0 l/m 5,6 km/h (1 Bft) S-SW 202 0,8 C 4,1 C 13,4 km/h (3 Bft)
04.01.2014 18:25 4,5 C 75 % 1004,8 hPa 0,0 l/m 5,3 km/h (1 Bft) SO 135 0,5 C 4,3 C 5,3 km/h (1 Bft)
04.01.2014 18:30 5,3 C 73 % 1004,8 hPa 0,0 l/m 5,5 km/h (1 Bft) O-SO 112 0,9 C 4,4 C 9,7 km/h (2 Bft)
04.01.2014 18:35 5,4 C 71 % 1004,8 hPa 0,0 l/m 6,1 km/h (2 Bft) SO 135 0,6 C 4,5 C 3,7 km/h (1 Bft)
04.01.2014 18:40 4,8 C 72 % 1004,8 hPa 0,0 l/m 6,4 km/h (2 Bft) S-SO 157 0,2 C 4,4 C 7,2 km/h (2 Bft)
04.01.2014 18:45 4,9 C 73 % 1005,0 hPa 0,0 l/m 6,9 km/h (2 Bft) NO 45 0,5 C 4,2 C 7,9 km/h (2 Bft)
04.01.2014 18:50 5,2 C 73 % 1005,0 hPa 0,0 l/m 7,9 km/h (2 Bft) S 180 0,8 C 3,1 C 11,7 km/h (2 Bft)
04.01.2014 18:55 5,1 C 74 % 1005,0 hPa 0,0 l/m 9,2 km/h (2 Bft) S-SW 202 0,9 C 1,8 C 14,5 km/h (3 Bft)
04.01.2014 19:00 4,8 C 75 % 1005,0 hPa 0,0 l/m 9,3 km/h (2 Bft) O-SO 112 0,8 C 1,6 C 15,1 km/h (3 Bft)
04.01.2014 19:05 4,8 C 76 % 1005,4 hPa 0,0 l/m 9,0 km/h (2 Bft) S-SW 202 0,9 C 1,6 C 15,1 km/h (3 Bft)
04.01.2014 19:10 4,7 C 78 % 1005,4 hPa 0,0 l/m 8,2 km/h (2 Bft) S 180 1,2 C 2,1 C 6,1 km/h (2 Bft)
04.01.2014 19:15 4,5 C 78 % 1005,4 hPa 0,0 l/m 7,9 km/h (2 Bft) S 180 1,0 C 1,9 C 5,8 km/h (2 Bft)
04.01.2014 19:20 4,3 C 80 % 1005,4 hPa 0,0 l/m 5,5 km/h (1 Bft) S-SO 157 1,2 C 3,7 C 5,6 km/h (1 Bft)
04.01.2014 19:25 4,1 C 80 % 1005,6 hPa 0,0 l/m 4,7 km/h (1 Bft) S-SO 157 1,0 C 3,6 C 4,3 km/h (1 Bft)
04.01.2014 19:30 4,1 C 83 % 1005,6 hPa 0,0 l/m 5,3 km/h (1 Bft) S 180 1,5 C 3,1 C 9,8 km/h (2 Bft)
04.01.2014 19:35 4,0 C 84 % 1005,6 hPa 0,0 l/m 6,6 km/h (2 Bft) S 180 1,5 C 2,5 C 14,5 km/h (3 Bft)
04.01.2014 19:40 3,9 C 88 % 1005,6 hPa 0,0 l/m 10,8 km/h (2 Bft) S 180 2,1 C -2,3 C 26,1 km/h (4 Bft)
04.01.2014 19:45 3,9 C 89 % 1005,9 hPa 0,0 l/m 13,2 km/h (3 Bft) S 180 2,3 C -4,4 C 14,3 km/h (3 Bft)
04.01.2014 19:50 3,8 C 90 % 1005,9 hPa 0,0 l/m 12,9 km/h (3 Bft) SO 135 2,3 C -4,3 C 15,1 km/h (3 Bft)
04.01.2014 19:55 3,6 C 90 % 1005,9 hPa 0,0 l/m 12,4 km/h (3 Bft) S 180 2,1 C -3,9 C 21,2 km/h (4 Bft)
04.01.2014 20:00 3,6 C 91 % 1005,9 hPa 0,0 l/m 12,1 km/h (2 Bft) S-SO 157 2,3 C -3,7 C 18,0 km/h (3 Bft)
04.01.2014 20:05 3,5 C 91 % 1006,2 hPa 0,0 l/m 10,9 km/h (2 Bft) SO 135 2,2 C -2,8 C 17,4 km/h (3 Bft)
04.01.2014 20:10 3,3 C 92 % 1006,2 hPa 0,0 l/m 10,6 km/h (2 Bft) S 180 2,1 C -2,6 C 12,4 km/h (3 Bft)
04.01.2014 20:15 3,3 C 92 % 1006,2 hPa 0,0 l/m 11,4 km/h (2 Bft) S 180 2,1 C -3,5 C 7,9 km/h (2 Bft)
04.01.2014 20:20 3,1 C 92 % 1006,2 hPa 0,0 l/m 10,5 km/h (2 Bft) S 180 1,9 C -2,7 C 8,7 km/h (2 Bft)
04.01.2014 20:25 3,1 C 92 % 1006,6 hPa 0,0 l/m 9,5 km/h (2 Bft) S 180 1,9 C -1,8 C 8,4 km/h (2 Bft)
04.01.2014 20:30 3,1 C 93 % 1006,6 hPa 0,0 l/m 7,9 km/h (2 Bft) SO 135 2,1 C -0,1 C 7,2 km/h (2 Bft)
04.01.2014 20:35 3,1 C 93 % 1006,6 hPa 0,0 l/m 7,1 km/h (2 Bft) SW 225 2,1 C 1,0 C 7,4 km/h (2 Bft)
04.01.2014 20:40 3,0 C 93 % 1006,6 hPa 0,0 l/m 7,6 km/h (2 Bft) S-SW 202 2,0 C 0,2 C 6,9 km/h (2 Bft)
04.01.2014 20:45 3,1 C 93 % 1006,6 hPa 0,0 l/m 7,2 km/h (2 Bft) SO 135 2,1 C 0,8 C 5,1 km/h (1 Bft)
04.01.2014 20:50 3,1 C 94 % 1006,6 hPa 0,0 l/m 6,9 km/h (2 Bft) O-SO 112 2,2 C 1,2 C 16,3 km/h (3 Bft)
04.01.2014 20:55 3,3 C 94 % 1006,6 hPa 0,0 l/m 6,9 km/h (2 Bft) SO 135 2,4 C 1,3 C 9,3 km/h (2 Bft)
04.01.2014 21:00 3,3 C 94 % 1006,6 hPa 0,0 l/m 6,9 km/h (2 Bft) S-SO 157 2,4 C 1,3 C 7,4 km/h (2 Bft)
04.01.2014 21:05 3,1 C 94 % 1006,0 hPa 0,0 l/m 6,0 km/h (2 Bft) W-SW 247 2,2 C 2,3 C 2,3 km/h (1 Bft)
04.01.2014 21:10 3,1 C 94 % 1006,0 hPa 0,0 l/m 4,0 km/h (1 Bft) SO 135 2,2 C 3,1 C 4,8 km/h (1 Bft)
04.01.2014 21:15 3,1 C 94 % 1006,0 hPa 0,0 l/m 3,7 km/h (1 Bft) NO 45 2,2 C 3,2 C 0,0 km/h (0 Bft)
04.01.2014 21:20 3,3 C 94 % 1006,0 hPa 0,0 l/m 3,7 km/h (1 Bft) O-SO 112 2,4 C 3,2 C 4,8 km/h (1 Bft)
04.01.2014 21:25 3,4 C 95 % 1005,6 hPa 0,0 l/m 3,2 km/h (1 Bft) N 360 2,7 C 3,6 C 1,6 km/h (1 Bft)
04.01.2014 21:29 3,5 C 95 % 1005,6 hPa 0,0 l/m 2,4 km/h (1 Bft) O-SO 112 2,8 C 3,9 C 1,6 km/h (1 Bft)
04.01.2014 21:30 3,5 C 95 % 1005,6 hPa 0,0 l/m 2,4 km/h (1 Bft) O-SO 112 2,8 C 3,9 C 1,6 km/h (1 Bft)
04.01.2014 21:35 3,5 C 95 % 1005,6 hPa 0,0 l/m 1,4 km/h (1 Bft) N-NO 22 2,8 C 4,0 C 2,4 km/h (1 Bft)
04.01.2014 21:40 3,4 C 95 % 1005,6 hPa 0,0 l/m 1,3 km/h (1 Bft) N 360 2,7 C 4,0 C 0,0 km/h (0 Bft)
04.01.2014 21:45 3,4 C 95 % 1005,8 hPa 0,0 l/m 1,6 km/h (1 Bft) W 270 2,7 C 4,0 C 7,2 km/h (2 Bft)
04.01.2014 21:50 3,2 C 95 % 1005,8 hPa 0,0 l/m 1,9 km/h (1 Bft) NW 315 2,5 C 4,0 C 0,0 km/h (0 Bft)
04.01.2014 21:55 3,2 C 95 % 1005,8 hPa 0,0 l/m 2,1 km/h (1 Bft) N 360 2,5 C 3,9 C 2,7 km/h (1 Bft)
04.01.2014 22:00 3,1 C 95 % 1005,8 hPa 0,0 l/m 1,3 km/h (1 Bft) O 90 2,4 C 3,9 C 6,4 km/h (2 Bft)
04.01.2014 22:05 3,3 C 95 % 1005,4 hPa 0,0 l/m 2,1 km/h (1 Bft) W 270 2,6 C 3,9 C 6,8 km/h (2 Bft)
04.01.2014 22:10 3,3 C 95 % 1005,4 hPa 0,0 l/m 3,4 km/h (1 Bft) S 180 2,6 C 3,7 C 11,3 km/h (2 Bft)
04.01.2014 22:15 3,3 C 95 % 1005,4 hPa 0,0 l/m 3,4 km/h (1 Bft) W-NW 292 2,6 C 3,7 C 3,9 km/h (1 Bft)
04.01.2014 22:20 3,3 C 95 % 1005,4 hPa 0,0 l/m 3,7 km/h (1 Bft) W 270 2,6 C 3,7 C 5,0 km/h (1 Bft)
04.01.2014 22:25 3,3 C 95 % 1004,9 hPa 0,0 l/m 3,4 km/h (1 Bft) W-NW 292 2,6 C 3,8 C 2,9 km/h (1 Bft)
04.01.2014 22:30 3,4 C 96 % 1004,9 hPa 0,0 l/m 3,4 km/h (1 Bft) NW 315 2,8 C 3,8 C 7,2 km/h (2 Bft)
04.01.2014 22:35 3,4 C 96 % 1004,9 hPa 0,0 l/m 3,7 km/h (1 Bft) W-SW 247 2,8 C 3,8 C 6,8 km/h (2 Bft)
04.01.2014 22:40 3,4 C 96 % 1004,9 hPa 0,0 l/m 3,4 km/h (1 Bft) NO 45 2,8 C 3,9 C 0,0 km/h (0 Bft)
04.01.2014 22:45 3,3 C 96 % 1004,7 hPa 0,0 l/m 1,9 km/h (1 Bft) NO 45 2,7 C 4,0 C 0,0 km/h (0 Bft)
04.01.2014 22:50 3,3 C 96 % 1004,7 hPa 0,0 l/m 1,6 km/h (1 Bft) W-NW 292 2,7 C 3,9 C 0,0 km/h (0 Bft)
04.01.2014 22:55 3,0 C 96 % 1004,7 hPa 0,0 l/m 1,4 km/h (1 Bft) W-NW 292 2,4 C 3,7 C 0,0 km/h (0 Bft)
04.01.2014 23:00 2,7 C 96 % 1004,7 hPa 0,0 l/m 0,8 km/h (0 Bft) NO 45 2,1 C 3,4 C 2,4 km/h (1 Bft)
04.01.2014 23:05 2,6 C 96 % 1003,9 hPa 0,0 l/m 1,1 km/h (1 Bft) N 360 2,0 C 3,0 C 2,3 km/h (1 Bft)
04.01.2014 23:10 2,5 C 96 % 1003,9 hPa 0,0 l/m 2,1 km/h (1 Bft) W-NW 292 1,9 C 2,8 C 6,4 km/h (2 Bft)
04.01.2014 23:15 2,5 C 96 % 1003,9 hPa 0,0 l/m 2,6 km/h (1 Bft) W-SW 247 1,9 C 2,8 C 6,4 km/h (2 Bft)
04.01.2014 23:20 2,6 C 96 % 1003,9 hPa 0,0 l/m 2,9 km/h (1 Bft) W-NW 292 2,0 C 2,7 C 6,0 km/h (2 Bft)
04.01.2014 23:25 2,6 C 96 % 1003,6 hPa 0,0 l/m 3,7 km/h (1 Bft) N-NO 22 2,0 C 2,4 C 6,6 km/h (2 Bft)
04.01.2014 23:30 2,5 C 96 % 1003,6 hPa 0,0 l/m 3,5 km/h (1 Bft) N 360 1,9 C 2,5 C 1,9 km/h (1 Bft)
04.01.2014 23:35 2,5 C 96 % 1003,6 hPa 0,0 l/m 3,9 km/h (1 Bft) W-NW 292 1,9 C 2,5 C 4,8 km/h (1 Bft)
04.01.2014 23:40 2,5 C 97 % 1003,6 hPa 0,0 l/m 3,2 km/h (1 Bft) O-NO 67 2,1 C 2,8 C 2,4 km/h (1 Bft)
04.01.2014 23:45 2,8 C 97 % 1003,2 hPa 0,0 l/m 2,1 km/h (1 Bft) W-NW 292 2,4 C 3,0 C 0,0 km/h (0 Bft)
04.01.2014 23:50 2,8 C 97 % 1003,2 hPa 0,0 l/m 1,1 km/h (1 Bft) W-NW 292 2,4 C 2,8 C 2,1 km/h (1 Bft)
04.01.2014 23:55 2,6 C 97 % 1003,2 hPa 0,0 l/m 1,0 km/h (0 Bft) W-NW 292 2,2 C 2,8 C 7,1 km/h (2 Bft)
_ Min-Zeit 06:00 00:05 23:55 - 12:45 - - 00:15 19:45 23:45
Minimum _ 1,0 C 66 % 1003,2 hPa - 0,0 km/h (0 Bft) - - -3,9 C -4,4 C 0,0 km/h (0 Bft)
_ Max-Zeit 18:35 23:55 03:20 23:55 19:45 - - 13:50 13:55 19:40
Maximum _ 5,4 C 97 % 1017,8 hPa 0,0 l/m 13,2 km/h
S (3 Bft)
- - 3,6 C 6,3 C 26,1 km/h
S (4 Bft)
Durchschnitt _ 3,0 C 81 % 1010,4 hPa #0,0 l/m 2,4 km/h (1 Bft) O - 0,1 C 3,1 C 3,1 km/h (1 Bft)